User: anonymous   Login
Location: Sawmill Trailhead
(33.5800°N, 116.4497°W)
Time: 03:28:40
(UTC-08:00)
Language:

Uosat F - Orbit

View from above orbital plane
View from above orbital plane
View from above satellite
View from above satellite

Ground track
Ground track

The orbit data is extracted from the following two-line orbital elements,

1 21575U 91050B   14325.88274282  .00000307  00000-0  11087-3 0  1746
2 21575 098.7188 304.8385 0007016 204.3758 211.0246 14.40485164226189
Epoch (UTC): 21 November 2014 21:11:08
Eccentricity: 0.0007016
inclination: 98.7188°
perigee height: 752 km
apogee height: 762 km
right ascension of ascending node: 304.8385°
argument of perigee: 204.3758°
revolutions per day: 14.40485164
mean anomaly at epoch: 211.0246°
orbit number at epoch: 22618

The dashed part of the orbit path shows where the satellite is in the earth's shadow,  

DLR